Akron, OH

10:57 PM EDT on July 25, 2017 (GMT -0400)
Akron Fulton International

Weather History for KAKR - March, 2013

Change the Weather History Date:

Friday, March 1, 2013

  Actual Average (KCAK) Record (KCAK)
Temperature  
Mean Temperature 28 °F -  
Max Temperature 30 °F 42 °F 66 °F (1972)
Min Temperature 26 °F 24 °F 2 °F (1980)
Degree Days  
Heating Degree Days 37    
Moisture  
Dew Point 22 °F    
Average Humidity 80    
Maximum Humidity 93    
Minimum Humidity 74    
Precipitation  
Precipitation 0.00 in - - ()
Sea Level Pressure  
Sea Level Pressure 29.95 in    
Wind  
Wind Speed 11 mph (NNW)    
Max Wind Speed 16 mph    
Max Gust Speed 22 mph    
Visibility 6 miles    
Events Snow    
Averages and records for this station are not official NWS values.
T = Trace of Precipitation, MM = Missing Value Source: NWS Daily Summary

Daily Weather History Graph

Daily Weather History Graph

Search for Another Location

Airport or City:

Trip Planner

Search our weather history database for the weather conditions in past years. The results will help you decide how hot, cold, wet, or windy it might be!

Date:

Astronomy

Mar. 01, 2013 Rise Set
Actual Time 6:59 AM EST 6:17 PM EST
Civil Twilight 6:32 AM EST 6:44 PM EST
Nautical Twilight 6:00 AM EST 7:16 PM EST
Astronomical Twilight 5:28 AM EST 7:48 PM EST
Moon 10:51 PM EST (3/1) 8:43 AM EST (3/1)
Length of Visible Light 12h 12m
Length of Day
11h 17m
Waning Gibbous, 83% of the Moon is Illuminated
Mar 1
Waning Gibbous
Mar 4
Last Quarter
Mar 11
New
Mar 19
First Quarter
Mar 27
Full

Hourly Weather History & Observations

Time (EST) Temp. Windchill Dew Point Humidity Pressure Visibility Wind Dir Wind Speed Gust Speed Precip Events Conditions
12:54 AM 30.0 °F 20.5 °F 26.1 °F 85% 29.88 in 10.0 mi North 11.5 mph 17.3 mph N/A   Overcast
1:32 AM 28.4 °F 19.7 °F 26.6 °F 93% 29.86 in 2.5 mi NNW 9.2 mph - 0.00 in Snow Light Snow
1:36 AM 28.4 °F 18.5 °F 26.6 °F 93% 29.86 in 3.0 mi NW 11.5 mph 17.3 mph 0.00 in Snow Light Snow
1:54 AM 28.9 °F 18.6 °F 26.1 °F 89% 29.89 in 7.0 mi NNW 12.7 mph - 0.00 in   Overcast
2:22 AM 28.4 °F 19.1 °F 26.6 °F 93% 29.87 in 7.0 mi NNW 10.4 mph - N/A   Overcast
2:54 AM 28.9 °F 19.8 °F 26.1 °F 89% 29.90 in 6.0 mi NNW 10.4 mph - 0.00 in Snow Light Snow
3:29 AM 28.4 °F 19.7 °F 26.6 °F 93% 29.86 in 5.0 mi NNW 9.2 mph - 0.00 in   Overcast
3:54 AM 28.9 °F 17.7 °F 25.0 °F 85% 29.89 in 8.0 mi NNW 15.0 mph - 0.00 in Snow Light Snow
4:54 AM 28.9 °F 19.8 °F 24.1 °F 82% 29.90 in 10.0 mi NNW 10.4 mph 16.1 mph 0.00 in   Overcast
5:50 AM 28.4 °F 19.1 °F 24.8 °F 86% 29.88 in 9.0 mi North 10.4 mph 21.9 mph 0.00 in   Overcast
5:54 AM 28.0 °F 18.1 °F 24.1 °F 85% 29.91 in 10.0 mi North 11.5 mph - 0.00 in   Overcast
6:54 AM 28.4 °F 18.5 °F 21.2 °F 74% 29.89 in 10.0 mi North 11.5 mph - N/A   Overcast
7:54 AM 26.1 °F 16.8 °F 19.9 °F 78% 29.95 in 7.0 mi North 9.2 mph - N/A   Overcast
8:24 AM 26.6 °F 14.3 °F 19.4 °F 74% 29.93 in 8.0 mi North 16.1 mph - N/A   Overcast
8:54 AM 27.0 °F 18.7 °F 21.0 °F 78% 29.97 in 3.0 mi NNW 8.1 mph 18.4 mph 0.00 in Snow Light Snow
9:01 AM 26.6 °F 18.2 °F 21.2 °F 80% 29.93 in 1.8 mi NNW 8.1 mph - 0.00 in Snow Light Snow
9:16 AM 26.6 °F 16.8 °F 21.2 °F 80% 29.94 in 1.2 mi NNW 10.4 mph - 0.00 in Snow Light Snow
9:29 AM 26.6 °F 17.5 °F 21.2 °F 80% 29.94 in 0.8 mi NNW 9.2 mph - 0.00 in Snow Light Snow
9:36 AM 26.6 °F 17.5 °F 21.2 °F 80% 29.94 in 1.0 mi NNW 9.2 mph - 0.00 in Snow Light Snow
9:51 AM 26.6 °F 16.2 °F 21.2 °F 80% 29.94 in 2.0 mi North 11.5 mph - 0.00 in Snow Light Snow
9:54 AM 26.6 °F 15.2 °F 21.2 °F 80% 29.94 in 3.0 mi North 13.8 mph - N/A Snow Light Snow
10:22 AM 28.4 °F 18.0 °F 21.2 °F 74% 29.94 in 7.0 mi NNW 12.7 mph - 0.00 in   Overcast
10:39 AM 26.6 °F 15.7 °F 21.2 °F 80% 29.94 in 2.5 mi NNW 12.7 mph - 0.00 in Snow Light Snow
10:54 AM 28.4 °F 19.1 °F 23.0 °F 80% 29.95 in 4.0 mi NNW 10.4 mph - N/A Snow Light Snow
11:41 AM 28.4 °F 18.0 °F 21.2 °F 74% 29.96 in 10.0 mi North 12.7 mph - 0.01 in   Overcast
11:54 AM 28.4 °F 18.5 °F 21.2 °F 74% 29.96 in 10.0 mi NNW 11.5 mph - N/A   Overcast
12:06 PM 28.4 °F 19.1 °F 21.2 °F 74% 29.96 in 10.0 mi North 10.4 mph - N/A   Overcast
12:54 PM 28.4 °F 19.1 °F 21.2 °F 74% 29.95 in 6.0 mi North 10.4 mph - N/A   Haze
1:54 PM 28.9 °F 18.2 °F 21.9 °F 75% 29.97 in 5.0 mi NNW 13.8 mph - 0.00 in Snow Light Snow
2:08 PM 28.4 °F 18.0 °F 21.2 °F 74% 29.93 in 4.0 mi North 12.7 mph 19.6 mph 0.00 in Snow Light Snow
2:19 PM 28.4 °F 18.5 °F 23.0 °F 80% 29.93 in 2.0 mi NNW 11.5 mph - 0.00 in Snow Light Snow
2:33 PM 28.4 °F 18.5 °F 21.2 °F 74% 29.93 in 3.0 mi NNW 11.5 mph - 0.00 in Snow Light Snow
2:54 PM 28.9 °F 19.8 °F 23.0 °F 78% 29.97 in 4.0 mi NNW 10.4 mph - 0.00 in   Haze
2:58 PM 28.4 °F 18.5 °F 23.0 °F 80% 29.94 in 2.5 mi NNW 11.5 mph - 0.00 in Snow Light Snow
3:20 PM 28.4 °F 18.5 °F 21.2 °F 74% 29.94 in 5.0 mi North 11.5 mph - 0.00 in   Haze
3:27 PM 28.4 °F 19.1 °F 21.2 °F 74% 29.94 in 9.0 mi North 10.4 mph - 0.00 in   Overcast
3:38 PM 28.4 °F 17.0 °F 21.2 °F 74% 29.94 in 2.0 mi North 15.0 mph - 0.00 in Snow Light Snow
3:50 PM 28.4 °F 19.7 °F 21.2 °F 74% 29.94 in 5.0 mi NNW 9.2 mph - 0.00 in Snow Light Snow
3:54 PM 28.0 °F 18.6 °F 21.9 °F 78% 29.98 in 9.0 mi NNW 10.4 mph - 0.00 in   Overcast
4:54 PM 28.0 °F 20.0 °F 21.9 °F 78% 29.98 in 6.0 mi North 8.1 mph - 0.00 in   Haze
5:01 PM 26.6 °F 17.5 °F 21.2 °F 80% 29.95 in 5.0 mi North 9.2 mph - 0.00 in Snow Light Snow
5:54 PM 27.0 °F 16.7 °F 21.9 °F 81% 29.99 in 5.0 mi NW 11.5 mph - 0.00 in   Haze
6:37 PM 26.6 °F 15.7 °F 21.2 °F 80% 29.97 in 7.0 mi NNW 12.7 mph - 0.00 in   Overcast
6:54 PM 27.0 °F 18.7 °F 21.9 °F 81% 30.01 in 5.0 mi NNW 8.1 mph - 0.00 in Snow Light Snow
7:12 PM 26.6 °F 15.7 °F 21.2 °F 80% 29.97 in 8.0 mi North 12.7 mph 19.6 mph 0.00 in   Overcast
7:54 PM 26.1 °F 14.5 °F 21.0 °F 81% 30.02 in 7.0 mi NNW 13.8 mph 19.6 mph 0.00 in   Overcast
8:08 PM 26.6 °F 16.2 °F 21.2 °F 80% 29.98 in 4.0 mi North 11.5 mph 17.3 mph 0.00 in Snow Light Snow
8:24 PM 26.6 °F 16.2 °F 21.2 °F 80% 29.98 in 5.0 mi NNW 11.5 mph - 0.00 in Snow Light Snow
8:32 PM 26.6 °F 17.5 °F 21.2 °F 80% 29.98 in 5.0 mi NNW 9.2 mph - 0.00 in Snow Light Snow
8:54 PM 26.6 °F 17.5 °F 21.2 °F 80% 29.99 in 6.0 mi NNW 9.2 mph - N/A Snow Light Snow
9:02 PM 26.6 °F 17.5 °F 21.2 °F 80% 29.99 in 6.0 mi North 9.2 mph - 0.00 in Snow Light Snow
9:12 PM 26.6 °F 18.2 °F 21.2 °F 80% 29.99 in 6.0 mi NNW 8.1 mph - 0.00 in   Haze
9:54 PM 26.1 °F 17.6 °F 21.0 °F 81% 30.03 in 4.0 mi North 8.1 mph - 0.00 in Snow Light Snow
10:54 PM 26.1 °F 16.2 °F 21.0 °F 81% 30.02 in 10.0 mi North 10.4 mph - 0.00 in   Overcast
11:11 PM 26.6 °F 17.5 °F 21.2 °F 80% 29.98 in 10.0 mi NNW 9.2 mph - N/A   Overcast
11:54 PM 26.1 °F 17.6 °F 21.0 °F 81% 30.01 in 10.0 mi North 8.1 mph - N/A   Overcast